Location: Cranbrook Institute of Science
(42.5830°N, 83.2450°W)
Time: 01:47:41
(UTC-05:00)

Daily predictions for brighter satellites

Satellite Brightness Start Highest point End
(mag) Time Altitude Azimuth Time Altitude Azimuth Time Altitude Azimuth
Cosmos 2237 Rocket 4.0 04:24:05 25° NE 04:24:05 25° NE 04:26:24 10° NNE
USA 215 3.7 04:30:20 10° NE 04:36:44 55° SE 04:37:30 52° SSE
Lacrosse 5 rocket 4.3 04:47:25 11° NE 04:47:25 11° NE 04:47:34 10° NE
CENTAUR R/B 2.5 04:57:18 66° S 04:58:05 75° ESE 05:04:55 10° NE
Cosmos 2219 Rocket 4.0 05:04:54 20° N 05:04:54 20° N 05:06:42 10° NNE
ADEOS II 4.2 04:57:19 10° N 04:58:21 16° N 04:58:21 16° N
Cosmos 2333 Rocket 3.5 05:08:13 27° N 05:08:13 27° N 05:10:52 10° NNE
Cosmos 2297 3.8 05:06:49 65° NNE 05:07:29 73° ENE 05:13:08 10° SSE
Cosmos 2181 Rocket 3.9 05:12:39 29° N 05:16:14 83° W 05:22:36 10° S
Cosmos 1238 Rocket 3.8 05:20:28 28° NNE 05:22:45 60° E 05:28:07 10° SSE
Cosmos 2151 Rocket 4.4 05:20:24 10° S 05:24:45 51° E 05:29:07 10° NNE
Cosmos 2278 Rocket 3.4 05:27:05 27° SSW 05:27:05 27° SSW 05:30:00 10° S
Cosmos 1709 Rocket 3.9 05:19:00 10° SSW 05:25:03 62° W 05:31:13 10° N
SKYMED 2 4.3 05:22:57 10° SSE 05:27:09 51° ENE 05:29:36 23° N
Timation 1 Rocket 4.2 05:26:09 47° NNW 05:28:00 85° WSW 05:34:00 10° SSE
DELTA 2 R/B (1) 4.1 05:30:38 41° SW 05:31:10 42° SSW 05:36:23 10° SE
Tiangong 2 2.8 05:32:51 33° ESE 05:32:51 33° ESE 05:34:56 10° E
SL-16 R/B 2.1 05:27:56 14° SSW 05:32:52 88° WNW 05:38:35 10° NNE
Cosmos 1346 Rocket 4.0 05:34:43 17° NNE 05:37:20 40° ENE 05:41:02 10° SSE
Cosmos 1812 2.7 05:39:51 64° NNE 05:40:22 80° E 05:44:14 10° S
Cosmos 773 Rocket 4.5 05:45:17 39° NW 05:45:17 39° NW 05:49:14 10° N
USA 32 3.9 05:40:31 10° N 05:45:46 89° E 05:51:01 10° S
PSLV R/B 3.5 05:47:17 66° SSE 05:47:17 66° SSE 05:50:27 10° E
Cosmos 923 Rocket 4.0 05:45:49 26° SW 05:48:42 57° WNW 05:53:57 10° NNE
Iridium 2 3.6 05:45:31 10° S 05:49:19 89° E 05:53:08 10° N
Cosmos 1536 Rocket 3.5 05:47:49 17° N 05:51:13 85° E 05:55:38 10° S
CZ-4B R/B 4.4 05:47:34 10° N 05:55:24 15° SW 05:56:13 10° SSW
Cosmos 1371 Rocket 4.3 05:49:34 14° NNW 05:54:12 68° ENE 05:59:27 10° SSE
Ariane Rocket 3.3 05:52:27 10° NNE 05:57:31 67° ESE 06:02:31 10° S
Radarsat Rocket 4.4 05:55:56 10° NNE 06:02:48 82° WNW 06:10:37 10° SSW
Cosmos 2237 Rocket 3.3 06:05:58 24° NW 06:05:58 24° NW 06:09:51 10° N
Meteor 1-18 Rocket 4.4 06:03:01 10° NNW 06:08:44 52° W 06:14:26 10° SSW
Meteor 1-28 Rocket 3.2 06:06:05 10° SSE 06:09:51 80° ENE 06:13:40 10° N
Okean 1 Rocket 3.7 06:06:00 10° S 06:10:19 57° E 06:14:39 10° NNE
Nadezhda 3 Rocket 4.4 06:04:38 10° N 06:10:59 69° E 06:17:20 10° SSE
Okean 1-7 Rocket 4.3 06:09:23 10° N 06:13:42 53° E 06:17:59 10° SSE
Gbstr 26 Del rocket 3.9 06:12:20 28° W 06:13:42 34° SW 06:17:27 10° SSE
COSMO-SKYMED 1 2.8 06:11:00 10° S 06:15:11 47° W 06:18:11 18° NNW
CRYOSAT 2 4.4 06:10:49 10° S 06:15:37 57° W 06:20:27 10° NNW
Cosmos 1680 Rocket 3.8 06:12:53 10° SW 06:17:48 41° WNW 06:22:45 10° N
USA 215 3.5 06:13:26 10° NE 06:19:42 51° NNW 06:24:52 15° W
USA 129 1.7 06:19:53 10° SSE 06:21:48 69° ENE 06:22:09 51° NNE
Cosmos 921 Rocket 3.3 06:19:06 19° NW 06:22:05 49° WSW 06:26:26 10° S
Cosmos 1633 2.8 06:19:24 10° S 06:23:02 71° E 06:26:41 10° NNE
Lacrosse 5 rocket 3.2 06:23:09 15° NNW 06:23:43 15° NNW 06:26:14 10° NNE
CSL-04 Debris 4.3 06:19:48 10° NNE 06:25:17 81° ESE 06:30:46 10° SSW
Cosmos 2341 Rocket 4.4 06:20:04 10° S 06:26:19 68° E 06:32:32 10° NNE
CSL-04 Rocket 3.7 06:21:34 10° NNE 06:27:09 84° WNW 06:32:40 10° SSW
Cosmos 292 Rocket 4.3 06:24:11 10° SW 06:28:38 36° WNW 06:33:07 10° N
Cosmos 1603 3.6 06:24:27 10° SSW 06:30:10 82° WNW 06:35:53 10° NNE
SL-24 DEB 4.3 06:26:30 10° S 06:31:16 86° W 06:36:06 10° N
Cosmos 2074 Rocket 4.3 06:26:31 10° SSW 06:32:26 43° WNW 06:38:22 10° N
Cosmos 2369 Rocket 2.8 06:28:29 10° NNW 06:34:08 57° ENE 06:39:43 10° SE
SOZ 3.9 06:35:09 23° WSW 06:36:17 56° NW 06:38:12 10° NE
Cosmos 1300 Rocket 3.8 06:40:15 10° SSW 06:44:31 46° WNW 06:48:48 10° N
Cosmos 2184 Rocket 4.5 06:39:32 10° SW 06:45:06 35° WNW 06:50:44 10° N
CENTAUR R/B 3.5 06:44:33 12° W 06:49:30 28° NW 06:55:32 10° NNE
Cosmos 2333 Rocket 4.0 06:50:16 10° NW 06:50:56 10° NW 06:51:56 10° NNW
Abrixas rocket 4.4 06:48:51 10° SSW 06:51:49 29° SE 06:54:47 10° E
Kosmos-1675 4.1 06:50:26 10° SSW 06:53:13 83° ESE 07:04:14 10° NE
Okean 2 4.2 06:50:02 10° N 06:54:09 56° E 06:58:15 10° SSE
Cosmos 1943 3.4 06:52:53 10° SSW 06:58:29 79° ESE 07:04:09 10° NNE
CZ-2C R/B 2.7 06:53:22 10° NNE 06:58:35 81° ESE 07:03:41 10° S
Meteor 1-19 Rocket 4.4 06:53:41 10° NNW 06:59:23 55° W 07:05:00 10° S
Cosmos 2154 Rocket 4.1 06:54:03 10° SSW 07:00:05 51° WNW 07:06:08 10° N
Meteor 1-11 Rocket 3.9 06:55:12 10° SSW 07:00:58 56° WNW 07:06:39 10° N
Cosmos 1455 Rocket 4.3 07:02:52 10° SSE 07:06:59 46° E 07:11:09 10° NNE
Tiangong 2 1.0 07:05:14 10° W 07:08:23 84° N 07:11:34 10° E
SPOT 3 Rocket 3.6 07:03:14 10° NNE 07:08:25 90° NW 07:13:35 10° SSW
SJ-12 4.0 07:05:25 10° N 07:09:33 63° WNW 07:13:38 10° SSW
PAYLOAD A 4.3 07:07:06 10° N 07:12:17 54° WNW 07:17:32 10° SSW
CZ-4 R/B 1.6 07:09:52 10° N 07:13:43 46° WNW 07:17:28 10° SW
